Location: Newcastle
(43.9170°N, 78.5830°W)
Time: 10:17:11
(UTC-05:00)

ISS - Visible Passes

Search period start: 20 February 2018 00:00
Search period end: 02 March 2018 00:00
Orbit: 403 x 407 km, 51.6° (Epoch: 21 February)

Date Brightness Start Highest point End Pass type
(mag) Time Alt. Az. Time Alt. Az. Time Alt. Az.
25 Feb -0.7 05:52:12 10° SSE 05:53:26 12° SE 05:54:41 10° ESE visible
27 Feb -1.8 05:42:16 10° SSW 05:45:04 26° SE 05:47:51 10° E visible
28 Feb -1.1 04:51:47 13° SSE 04:52:58 15° SE 04:54:51 10° E visible
01 Mar -3.4 05:34:43 20° SW 05:36:46 59° SE 05:40:00 10° ENE visible
